Tehachapi, CA

9:30 AM PST on December 05, 2019 (GMT -0800)
Tehachapi Municipal

Weather History for KTSP - October, 2019

Change the Weather History Date:

Thursday, October 10, 2019

  Actual Average Record
Temperature  
Mean Temperature 48 °F -  
Max Temperature 62 °F 74 °F 84 °F (2015)
Min Temperature 35 °F 43 °F 33 °F (2012)
Degree Days  
Heating Degree Days 16    
Moisture  
Dew Point 7 °F    
Average Humidity 28    
Maximum Humidity 87    
Minimum Humidity 5    
Precipitation  
Precipitation 0.00 in - - ()
Sea Level Pressure  
Sea Level Pressure 30.07 in    
Wind  
Wind Speed 13 mph ()    
Max Wind Speed 29 mph    
Max Gust Speed 40 mph    
Visibility 8.1 miles    
Events      
Averages and records for this station are not official NWS values.
T = Trace of Precipitation, MM = Missing Value Source: Averaged Metar Reports

Daily Weather History Graph

Daily Weather History Graph

Search for Another Location

Airport or City:

Astronomy

Oct. 10, 2019 Rise Set
Actual Time 6:55 AM PDT 6:25 PM PDT
Civil Twilight 6:30 AM PDT 6:50 PM PDT
Nautical Twilight 6:00 AM PDT 7:20 PM PDT
Astronomical Twilight 5:31 AM PDT 7:49 PM PDT
Moon 5:20 PM PDT (10/10) 3:54 AM PDT (10/10)
Length of Visible Light 12h 20m
Length of Day
11h 29m
Waxing Gibbous, 91% of the Moon is Illuminated
Oct 10
Waxing Gibbous
Oct 13
Full
Oct 21
Last Quarter
Oct 27
New
Nov 4
First Quarter

Hourly Weather History & Observations

Time (PDT) Temp. Windchill Dew Point Humidity Pressure Visibility Wind Dir Wind Speed Gust Speed Precip Events Conditions
12:15 AM 48.2 °F - 33.8 °F 58% 29.97 in 7.0 mi West 11.5 mph - N/A   Clear
12:35 AM 48.2 °F - 35.6 °F 62% 29.96 in 7.0 mi West 13.8 mph - N/A   Clear
12:55 AM 46.4 °F 40.7 °F 35.6 °F 66% 29.96 in 7.0 mi West 12.7 mph - N/A   Clear
1:15 AM 46.4 °F 40.4 °F 35.6 °F 66% 29.96 in 7.0 mi WNW 13.8 mph - N/A   Clear
1:55 AM 42.8 °F 39.3 °F 33.8 °F 70% 29.99 in 7.0 mi SE 5.8 mph - N/A   Clear
2:15 AM 41.0 °F 36.4 °F 33.8 °F 76% 29.99 in 7.0 mi North 6.9 mph - N/A   Clear
2:35 AM 41.0 °F - 32.0 °F 70% 29.99 in 7.0 mi Calm Calm - N/A   Clear
2:55 AM 39.2 °F 37.0 °F 32.0 °F 75% 29.99 in 7.0 mi North 3.5 mph - N/A   Scattered Clouds
3:15 AM 39.2 °F 37.0 °F 32.0 °F 75% 29.98 in 7.0 mi ENE 3.5 mph - N/A   Scattered Clouds
3:55 AM 37.4 °F - 32.0 °F 81% 29.99 in 7.0 mi Calm Calm - N/A   Clear
4:15 AM 35.6 °F 32.8 °F 32.0 °F 87% 30.00 in 7.0 mi ESE 3.5 mph - N/A   Clear
4:35 AM 37.4 °F 34.9 °F 32.0 °F 81% 30.00 in 7.0 mi East 3.5 mph - N/A   Clear
4:55 AM 37.4 °F 32.8 °F 32.0 °F 81% 30.00 in 8.0 mi ESE 5.8 mph - N/A   Clear
5:15 AM 35.6 °F 32.8 °F 28.4 °F 75% 30.00 in 8.0 mi ESE 3.5 mph - N/A   Clear
5:35 AM 35.6 °F 29.2 °F 26.6 °F 70% 30.00 in 10.0 mi ESE 8.1 mph - N/A   Partly Cloudy
5:55 AM 39.2 °F 34.2 °F 28.4 °F 65% 30.01 in 10.0 mi ESE 6.9 mph - N/A   Clear
6:15 AM 37.4 °F 29.8 °F 28.4 °F 70% 30.02 in 9.0 mi SE 11.5 mph - N/A   Clear
6:35 AM 39.2 °F 33.0 °F 28.4 °F 65% 30.02 in 9.0 mi SE 9.2 mph - N/A   Clear
6:55 AM 39.2 °F 32.5 °F 24.8 °F 56% 30.03 in 8.0 mi SE 10.4 mph - N/A   Clear
7:15 AM 42.8 °F 36.6 °F 24.8 °F 49% 30.04 in 7.0 mi SE 11.5 mph 17.3 mph N/A   Clear
7:35 AM 44.6 °F 39.2 °F 19.4 °F 37% 30.05 in 7.0 mi East 10.4 mph - N/A   Clear
7:55 AM 46.4 °F 41.1 °F 17.6 °F 32% 30.06 in 9.0 mi ESE 11.5 mph - N/A   Clear
8:15 AM 50.0 °F - 15.8 °F 26% 30.07 in 9.0 mi SE 15.0 mph - N/A   Clear
8:35 AM 50.0 °F - 14.0 °F 24% 30.09 in 9.0 mi SE 17.3 mph 20.7 mph N/A   Clear
8:55 AM 53.6 °F - 12.2 °F 19% 30.09 in 8.0 mi SE 16.1 mph 23.0 mph N/A   Clear
9:15 AM 55.4 °F - 8.6 °F 15% 30.10 in 8.0 mi ESE 13.8 mph 24.2 mph N/A   Clear
9:35 AM 55.4 °F - 8.6 °F 15% 30.11 in 7.0 mi ESE 20.7 mph 25.3 mph N/A   Clear
9:55 AM 55.4 °F - 8.6 °F 15% 30.11 in 7.0 mi SE 20.7 mph 28.8 mph N/A   Clear
10:15 AM 55.4 °F - 6.8 °F 14% 30.11 in 7.0 mi SE 21.9 mph 33.4 mph N/A   Clear
10:35 AM 57.2 °F - 6.8 °F 13% 30.11 in 8.0 mi SE 20.7 mph 31.1 mph N/A   Clear
10:55 AM 57.2 °F - 5.0 °F 12% 30.12 in 5.0 mi ESE 27.6 mph 36.8 mph N/A   Haze
11:15 AM 57.2 °F - 5.0 °F 12% 30.12 in 5.0 mi SE 24.2 mph 34.5 mph N/A   Haze
11:35 AM 57.2 °F - 5.0 °F 12% 30.12 in 5.0 mi ESE 25.3 mph 39.1 mph N/A   Haze
11:55 AM 57.2 °F - 3.2 °F 11% 30.11 in 7.0 mi ESE 26.5 mph 35.7 mph N/A   Clear
12:15 PM 59.0 °F - 3.2 °F 11% 30.11 in 8.0 mi ESE 26.5 mph 35.7 mph N/A   Clear
12:35 PM 59.0 °F - 1.4 °F 10% 30.10 in 5.0 mi ESE 25.3 mph 38.0 mph N/A   Haze
12:55 PM 59.0 °F - -0.4 °F 9% 30.10 in 4.0 mi SE 27.6 mph 39.1 mph N/A   Haze
1:15 PM 60.8 °F - -0.4 °F 8% 30.09 in 6.0 mi SE 28.8 mph 35.7 mph N/A   Haze
1:35 PM 60.8 °F - -2.2 °F 8% 30.09 in 5.0 mi ESE 25.3 mph 38.0 mph N/A   Haze
1:55 PM 60.8 °F - -2.2 °F 8% 30.08 in 5.0 mi SE 28.8 mph 40.3 mph N/A   Haze
2:35 PM 62.6 °F - -7.6 °F 6% 30.08 in 6.0 mi ESE 28.8 mph 35.7 mph N/A   Haze
2:55 PM 60.8 °F - -7.6 °F 6% 30.08 in 7.0 mi ESE 24.2 mph 36.8 mph N/A   Clear
3:15 PM 62.6 °F - -5.8 °F 6% 30.08 in 7.0 mi ESE 26.5 mph 34.5 mph N/A   Clear
3:35 PM 62.6 °F - -9.4 °F 5% 30.09 in 7.0 mi ESE 24.2 mph 33.4 mph N/A   Clear
3:55 PM 62.6 °F - -9.4 °F 5% 30.08 in 8.0 mi ESE 26.5 mph 38.0 mph N/A   Clear
4:15 PM 62.6 °F - -11.2 °F 5% 30.09 in 9.0 mi ESE 19.6 mph 33.4 mph N/A   Clear
4:35 PM 60.8 °F - -11.2 °F 5% 30.08 in 10.0 mi ESE 15.0 mph 29.9 mph N/A   Clear
4:55 PM 59.0 °F - -9.4 °F 6% 30.08 in 10.0 mi ESE 18.4 mph 26.5 mph N/A   Clear
5:15 PM 59.0 °F - -11.2 °F 5% 30.09 in 10.0 mi ESE 19.6 mph 27.6 mph N/A   Clear
5:35 PM 59.0 °F - -9.4 °F 6% 30.09 in 10.0 mi ESE 19.6 mph 27.6 mph N/A   Clear
5:55 PM 57.2 °F - -9.4 °F 6% 30.09 in 10.0 mi ESE 19.6 mph 26.5 mph N/A   Clear
6:15 PM 55.4 °F - -9.4 °F 7% 30.09 in 10.0 mi ESE 16.1 mph - N/A   Clear
6:35 PM 53.6 °F - -9.4 °F 7% 30.09 in 10.0 mi ESE 15.0 mph 27.6 mph N/A   Clear
6:55 PM 53.6 °F - -9.4 °F 7% 30.10 in 10.0 mi ESE 13.8 mph 21.9 mph N/A   Clear
7:15 PM 53.6 °F - -9.4 °F 7% 30.10 in 10.0 mi ESE 17.3 mph 24.2 mph N/A   Clear
7:35 PM 53.6 °F - -9.4 °F 7% 30.10 in 10.0 mi ESE 17.3 mph 26.5 mph N/A   Clear
7:55 PM 51.8 °F - -9.4 °F 8% 30.11 in 10.0 mi ESE 19.6 mph 25.3 mph N/A   Clear
8:15 PM 50.0 °F - -9.4 °F 8% 30.11 in 10.0 mi ESE 17.3 mph 23.0 mph N/A   Clear
8:35 PM 50.0 °F - -7.6 °F 9% 30.12 in 10.0 mi SE 18.4 mph 24.2 mph N/A   Clear
8:55 PM 50.0 °F - -9.4 °F 8% 30.13 in 10.0 mi ESE 18.4 mph 25.3 mph N/A   Clear
9:15 PM 50.0 °F - -7.6 °F 9% 30.13 in 10.0 mi ESE 20.7 mph 27.6 mph N/A   Clear
9:35 PM 50.0 °F - -7.6 °F 9% 30.14 in 10.0 mi SE 19.6 mph 25.3 mph N/A   Clear
9:55 PM 50.0 °F - -7.6 °F 9% 30.14 in 10.0 mi SE 19.6 mph 25.3 mph N/A   Clear
10:15 PM 50.0 °F - -7.6 °F 9% 30.15 in 10.0 mi SE 19.6 mph 25.3 mph N/A   Partly Cloudy
10:35 PM 48.2 °F - -7.6 °F 10% 30.15 in 10.0 mi SE 18.4 mph 21.9 mph N/A   Partly Cloudy
10:55 PM 50.0 °F - -7.6 °F 9% 30.15 in 10.0 mi SE 17.3 mph 26.5 mph N/A   Scattered Clouds
11:15 PM 50.0 °F - -7.6 °F 9% 30.15 in 10.0 mi SE 16.1 mph 24.2 mph N/A   Partly Cloudy
11:35 PM 50.0 °F - -7.6 °F 9% 30.15 in 10.0 mi SE 19.6 mph 25.3 mph N/A   Scattered Clouds
11:55 PM 50.0 °F - -7.6 °F 9% 30.15 in 10.0 mi SE 18.4 mph 25.3 mph N/A   Scattered Clouds